Regional Weather Roundup
Issued by NWS Grand Forks, ND

Home | Current Version | Previous Version | Text Only | Print | Product List | Glossary Off
Versions: 1 2 3 4 5 6 7 8 9 10 11 12 13 14 15 16 17 18 19 20 21 22 23 24 25 26 27 28 29 30 31 32 33 34 35 36 37 38 39 40 41 42 43 44 45 46 47 48 49 50

000
ASUS43 KFGF 292310
RWRFGF
PRAIRIE TO PINES  WEATHER ROUNDUP
NATIONAL WEATHER SERVICE EASTERN NORTH DAKOTA/GRAND FORKS ND
600 PM CDT SAT AUG 29 2015

 **SATELLITE DATA USED TO AUGMENT SKY COVER AT AUTOMATED STATIONS**
 *****  WEATHER ACROSS EASTERN NORTH DAKOTA  *****

CITY           SKY/WX    TMP DP  RH WIND       PRES   REMARKS
GRAND FORKS    PTSUNNY   78  68  71 S14       29.83F
GRAND FRKS AFB PTSUNNY   79  69  72 S10       29.83F
GRAND FRKS NWS   N/A     77 N/A N/A S6          N/A
DEVILS LAKE    PTSUNNY   82  64  54 S9        29.83F
FARGO          MOSUNNY   83  67  58 S13       29.87F
WAHPETON ARPT  CLEAR     79  64  61 S15       29.91F
$$

 ***** WEATHER ACROSS CENTRAL AND WESTERN NORTH DAKOTA  *****

CITY           SKY/WX    TMP DP  RH WIND       PRES   REMARKS
BISMARCK       PTSUNNY   91  54  28 SE10      29.84F HAZE
MINOT          MOSUNNY   91  46  21 S9        29.79F HAZE
JAMESTOWN      MOSUNNY   83  71  67 S7        29.86F
MINOT AFB      MOSUNNY   94  49  21 S10       29.77F HX  91
GARRISON         N/A     92  54  27 S9        29.82F HX  90
WILLISTON      MOSUNNY   93  47  20 CALM      29.79F HAZE
DICKINSON      PTSUNNY   97  41  14 SW12      29.83F HX  92
HETTINGER      SUNNY     96  45  17 S10       29.89F HX  92
$$

 *****  OTHER AIRPORT OBSERVATIONS IN OUR AREA  *****

CITY           SKY/WX    TMP DP  RH WIND       PRES   REMARKS
WALHALLA       FAIR      82  77  83 MISG      29.79F HX  91
GRAFTON AIRPOR FAIR      81  72  74 S12       29.83S
VALLEY CITY AR FAIR      81  73  78 S10       29.88F
CANDO          NOT AVBL
CAVALIER APRT  FAIR      82  72  69 S10       29.80F
GWINNER        FAIR      81  72  74 S8        29.90F
SHEYENNE NWR     N/A     82  68  62 S8        29.95S
ROLLA            N/A     82  57  42 S12G18    29.83S
 ***** THE ABOVE OBSERVATIONS ARE NON NWS ARE NOT QUALITY
       CONTROLLED AND MAY MIS-REPORT RAIN FOR SNOW...
$$

  *****  WEATHER ACROSS NORTHERN MINNESOTA  *****

CITY           SKY/WX    TMP DP  RH WIND       PRES   REMARKS
FLAG ISLAND    PTSUNNY   68  64  88 S10       29.87F
WARROAD        PTSUNNY   73  70  88 SE5       29.88S
ROSEAU         PTSUNNY   77  70  78 S5        29.86F
HALLOCK        MOSUNNY   79  70  73 S12       29.82F
THF RVR FALLS  MOSUNNY  N/A N/A N/A SW9       29.88R
BAUDETTE       PTSUNNY   73  67  81 SE8       29.89F
WASKISH        CLOUDY    75  68  78 SE3       29.91F
CROOKSTON      PTSUNNY   81  70  69 S13G21    29.86F
STEPHEN NDAWN    N/A     79  72  78 S9          N/A
GREENBUSH NDAW   N/A     79  68  69 S7          N/A
$$
  *****  WEATHER ACROSS CENTRAL AND WEST MINNESOTA  *****

CITY           SKY/WX    TMP DP  RH WIND       PRES   REMARKS
FOSSTON        MOSUNNY   77  64  65 S15       29.90F
BEMIDJI        CLOUDY    74  66  75 S8        29.93F
PARK RAPIDS    PTSUNNY   76  64  66 S10       29.96F
ELBOW LAKE     FAIR      73  64  75 SE14      29.95F
WADENA         PTSUNNY   72  63  73 SE7       29.97S
DETROIT LAKES  MOSUNNY   75  64  69 S9        29.95F
MOORHEAD       FAIR      81  70  69 S12       29.89F
FERGUS FALLS   MOSUNNY   75  64  69 S9        29.93F
MORRIS MN      CLOUDY    73  66  78 S12       29.95F
STAPLES        CLOUDY    72  63  73 S6        29.98F
$$
  *****  WEATHER ELSEWHERE ACROSS MINNESOTA  *****

CITY           SKY/WX    TMP DP  RH WIND       PRES   REMARKS
DULUTH         CLOUDY    72  62  71 SW9       30.00F
INTRNTL FALLS  CLOUDY    71  65  81 S3        29.93F
ELY            CLOUDY    70  63  78 SW5       29.98F
CLOQUET        PTSUNNY   73  61  64 SW7       30.00S
WHEATON        PTSUNNY   73  64  73 SE12      29.94F
BRAINERD       PTSUNNY   71  63  75 S7        30.00S
HIBBING        PTSUNNY   73  63  70 S7        29.98S
ALEXANDRIA     PTSUNNY   73  63  70 SE13      29.99F
SAINT CLOUD    MOSUNNY   71  63  75 S8        30.00F
MINNEAPOLIS    PTSUNNY   74  61  63 VRB5      30.02F
$$

  *****  WEATHER ACROSS SOUTH DAKOTA  *****

CITY           SKY/WX    TMP DP  RH WIND       PRES   REMARKS
SIOUX FALLS    CLOUDY    74  65  73 S9        30.00F
BROOKINGS      SUNNY     75  64  69 S10       30.01S
WATERTOWN      SUNNY     77  65  66 S10       29.96F
HURON          SUNNY     82  70  66 S14       29.92F
SISSETON         N/A     82  66  58 SW8       29.90F
ABERDEEN       SUNNY     84  74  71 S8        29.90F HX  91
MITCHELL       SUNNY     80  68  66 S13       29.96F
PIERRE         SUNNY     92  62  36 S10       29.88F HX  92
MOBRIDGE       SUNNY     88  65  46 S12       29.86F HX  90
RAPID CITY     SUNNY     91  51  25 S10       29.94F
$$

  *****  SOME WEATHER IN NEARBY STATES *****

CITY           SKY/WX    TMP DP  RH WIND       PRES   REMARKS
GLASGOW MT     HAZE      91  40  16 E13       29.76F VSB 1/2
GREAT FALLS MT FAIR      89  40  17 SW9       29.73F
CHEYENNE WY    SUNNY     84  36  18 S12       30.19F
SCOTTSBLUFF NE SUNNY     91  45  20 S12       30.03F
OMAHA NE       CLOUDY    72  63  73 CALM      30.03F
DES MOINES IA  CLOUDY    72  63  73 N6        30.02F
DAVENPORT IA   CLOUDY    72  67  84 E5        30.01S
CHICAGO IL     LGT RAIN  69  67  93 NE5       30.00S FOG
EAU CLAIRE WI  SUNNY     70  61  73 CALM      30.04S
LA CROSSE WI   CLOUDY    71  61  70 SE6       30.04S
$$

  *****  SOME NATIONAL WEATHER *****

CITY           SKY/WX    TMP DP  RH WIND       PRES   REMARKS
LA GUARDIA NY  PTCLDY    78  59  51 S15       30.10S
RALEIGH NC     CLOUDY    82  58  43 SE5       30.12F
ATLANTA GA     CLOUDY    78  64  61 SE6       30.12F
NEW ORLEANS LA MOSUNNY   86  65  49 S9        29.98S
OKLAHOMA CITY  MOSUNNY   90  63  40 N7        29.96S HX  91
ALBUQUERQUE NM PTSUNNY   84  42  22 SE17      30.19F
SALT LAKE CITY PTSUNNY   95  39  14 SE20G26   29.93F HX  91
LOS ANGELES CA FAIR      82  66  58 W18       29.86F
BOISE ID       FAIR      84  45  25 N14       29.83R
SEATTLE WA     PTSUNNY   70  53  54 SW21G33   29.76R
$$

*** WEATHER ACROSS MANITOBA...SASKATCHEWAN AND ONTARIO ***
                ***ONTARIO***

CITY           SKY/WX    TMP DP  RH WIND       PRES   REMARKS
GERALDTON      PTSUNNY   72  64  78 S6        29.94S HAZE
THUNDER BAY    MOSUNNY   75  64  69 SW5       29.94F
SIOUX LOOKOUT  MOSUNNY   75  61  60 SE3       29.91S
TORONTO        CLOUDY    72  59  64 S6        30.08F
BIG TROUT LK   MOSUNNY   77  55  47 W7        29.74S
PICKLE LAKE    MOSUNNY   79  55  44 SW8       29.87S
DRYDEN         SUNNY     75  63  64 S12G17    29.91F
KENORA         CLOUDY    72  66  83 S12       29.89F
$$
                *** MANITOBA***

CITY           SKY/WX    TMP DP  RH WIND       PRES   REMARKS
BRANDON        MOSUNNY   82  61  47 W9        29.75S SMOKE
DAUPHIN        SUNNY     82  63  51 SW10      29.68F HAZE
ISLAND LAKE    CLOUDY    73  57  56 S8        29.68F
PILOT MOUND      N/A     82  57  42 S14         N/A
THE PAS        MOSUNNY   79  59  50 W16       29.56S
THOMPSON       CLOUDY    68  63  83 NE9       29.58F
WINNIPEG       PTSUNNY   75  68  78 S21       29.78F
LYNN LAKE      PTSUNNY   63  54  72 MISG      29.68F
CHURCHILL      CLOUDY    50  48  93 NE16G23   29.75R FOG
GILLAM         CLOUDY    64  59  82 NE6       29.65F
$$
                ***SASKATCHEWAN***

CITY           SKY/WX    TMP DP  RH WIND       PRES   REMARKS
ESTEVAN        CLOUDY    84  54  34 S5        29.80F SMOKE
KINDERSLEY     PTSUNNY   82  43  24 SE13      29.69F
LLOYDMINSTER   PTSUNNY   79  46  31 S13       29.66F
PRINCE ALBERT  PTSUNNY   77  61  57 W9        29.67R SMOKE
REGINA         PTSUNNY   79  59  50 NW5       29.77F SMOKE
YORKTON        SUNNY     81  54  39 W12G17    29.73S
N. BATTLEFORD  SUNNY     82  45  26 S5        29.71F
LA RONGE       PTSUNNY   77  54  44 NW10      29.64S
SASKATOON      PTSUNNY   84  52  32 W6        29.73S
SWIFT CURRENT  SUNNY     82  48  30 SE8       29.76F HAZE
$$
NOTE: THESE ARE AUTOMATED STATIONS WITH LIMITED QUALITY CONTROL
      "FAIR" INDICATES FEW OR NO CLOUDS BELOW 12,000 FEET WITH NO
      SIGNIFICANT WEATHER AND/OR OBSTRUCTIONS TO VISIBILITY.
      SKY/WX - SKY CONDITION AND SIGNIFICANT WEATHER.
      TMP - AIR TEMPERATURE.    DP   - DEWPOINT TEMPERATURE.
      RH  - RELATIVE HUMIDITY.  PRES - PRESSURE.
      HX  - HEAT INDEX.         WCI  - WIND CHILL INDEX.
$



USA.gov is the U.S. government's official web portal to all federal, state and local government web resources and services.